Weather in Novyi Burluk

Ukraine / Kharkiv Region     49°52′19″N   37°05′20″E
temp.,
°C
wind,
m/s
gust,
m/s
humid.,
%
clouds,
%
prec.,
mm/h
press.,
hPa
HPBL,
m
11 april, sun
sun1100:00+6nne36590 0.0 102692
03:00+5nne3663100 0.0 1027104
06:00+4nne496548 0.0 1027174
09:00+9nne61047100 0.0 1028747
12:00+12nne7836100 0.0 10271141
15:00+14ne793387 0.0 10261361
18:00+12ne6104188 0.0 10251029
21:00+9ne61251100 0.0 1025510
12 april, mon
mon1200:00+9ne61258100 0.0 1024580
03:00+8ne51071100 0.0 1024367
06:00+8ne51191100 0.0 1023327
09:00+11ene71080100 0.0 1022439
12:00+18e795091 0.0 1020901
15:00+21ese7937100 0.0 10191357
18:00+18sse81250100 0.0 1020825
21:00+13ese4117493 0.0 1022347
13 april, tue
tue1300:00+13ese3107873 0.0 1021329
03:00+11se348493 0.0 102171
06:00+10ese3692100 0.0 1021118
09:00+13se5869100 0.0 1021563
12:00+18se694936 0.0 10211433
15:00+19sse574662 0.0 10201750
18:00+16s2362100 0.0 1020276
21:00+15se61163100 0.1 1021994
14 april, wed
wed1400:00+13ese31069100 0.0 1020481
03:00+12ese51075100 0.0 1019532
06:00+11se4981100 0.0 1018426
09:00+12sse4783100 0.0 1018500
12:00+15sse3467100 0.1 10181148
15:00+15sse4767100 0.4 1017911
18:00+14sse3564100 0.4 1017648
21:00+12wnw227586 0.4 101626
15 april, thu
thu1500:00+11nnw2281100 0.0 101526
03:00+10nnw3483100 0.0 101580
06:00+10n3484100 0.0 101373
09:00+13s3470100 0.0 1012402
12:00+12sse3478100 1.2 1011450
15:00+9ssw5889100 4.4 1012467
18:00+9sw2486100 0.8 1011184
21:00+9se368496 0.8 1010128